Wind_Speed
93 92 91 88 86 85 85 83 81 81 83 83 83 82 81 79 77 75 75 74 73 71 68 67 67 68 66 62 59 57 54 53 52 51 50 49 47 46 46 44 44 44 43 40 40 40 38 36 34 34 38 41 41 40 39 36 35 35 34 33 33 33 33 31 29 29 30 29 29 29 30 31 32 33 34 35 36 37 38 39 39 40 41 41 42 44
95 93 91 89 86 85 86 86 84 83 83 83 82 82 81 81 79 78 77 76 74 72 70 69 68 69 68 64 60 57 54 53 53 53 52 50 49 48 48 47 46 46 45 42 43 42 41 40 38 35 38 41 42 42 40 37 37 37 37 36 35 34 35 33 33 33 33 32 32 31 31 32 34 34 35 36 38 38 39 40 41 41 42 43 44 46
93 93 91 90 88 86 86 87 85 84 84 83 82 82 82 81 81 80 79 78 76 73 72 71 69 69 70 66 61 57 55 54 54 54 53 51 50 50 51 50 49 47 47 46 46 45 44 44 43 40 39 42 43 42 40 38 39 39 38 37 36 36 37 37 37 37 36 35 34 33 33 34 35 36 37 38 39 40 41 41 42 42 43 43 44 47
93 91 90 90 89 87 86 86 87 86 85 84 83 83 84 83 83 82 81 80 78 75 73 73 71 70 71 68 63 58 56 56 55 54 54 52 52 53 53 52 51 50 51 50 50 50 49 48 47 46 44 44 43 42 41 41 42 41 39 38 37 37 38 40 41 40 38 37 36 35 35 36 37 38 39 40 41 42 43 43 43 43 43 44 45 48
94 93 92 91 91 90 88 87 87 86 86 85 85 85 86 86 85 84 83 81 79 76 73 73 71 70 71 69 65 62 60 58 57 55 55 54 55 55 54 54 54 54 54 53 53 54 54 52 51 50 48 46 44 43 43 44 44 43 43 41 39 39 40 42 43 42 42 41 40 38 38 38 39 40 41 42 43 44 45 46 46 45 45 46 47 49
95 94 94 93 93 93 91 88 87 87 87 86 85 85 87 88 88 87 85 82 80 78 75 74 71 68 71 70 66 65 63 62 61 58 57 57 57 56 56 57 57 57 56 54 53 54 55 55 54 53 51 50 48 46 45 44 45 46 46 43 40 40 42 43 44 45 45 45 43 41 41 41 42 43 43 44 45 47 48 48 48 48 47 47 47 50
96 95 94 94 94 93 92 90 88 89 89 87 85 86 88 89 90 89 87 84 82 80 77 76 72 68 70 70 67 67 65 65 64 61 59 59 59 58 59 60 60 59 57 56 54 54 55 55 55 55 54 53 52 51 48 44 46 48 46 44 43 43 43 45 45 47 49 48 46 45 44 44 45 45 45 46 48 49 50 51 51 51 49 48 49 51
96 94 94 94 94 93 91 89 89 89 89 88 86 86 88 90 90 89 88 87 85 83 81 78 74 70 69 68 69 68 66 65 65 63 62 62 61 61 61 62 62 61 59 57 56 55 56 56 56 56 56 55 54 54 51 47 49 50 48 47 48 46 45 46 46 48 50 50 49 49 48 47 47 48 49 50 50 51 52 54 54 53 51 50 51 54
95 94 94 94 94 93 90 89 91 91 90 89 89 88 87 89 89 90 90 89 87 86 83 80 78 74 68 69 72 70 65 64 64 65 65 64 63 62 63 63 62 62 60 58 57 56 57 57 57 57 57 57 56 54 52 49 50 53 52 53 52 49 47 47 48 49 51 52 52 51 51 51 51 52 53 53 53 54 55 56 56 55 53 53 54 57
97 96 96 96 95 93 92 92 93 93 91 90 90 89 87 87 87 89 91 90 90 87 83 81 81 76 69 70 75 72 66 63 63 65 66 65 64 63 63 64 63 62 61 59 58 57 57 58 58 57 58 59 58 57 55 51 51 53 55 56 55 52 50 48 49 51 52 54 54 54 54 54 55 56 56 56 56 57 58 58 58 57 56 56 57 59
101 100 99 97 95 93 92 93 92 92 91 90 90 89 87 85 85 88 90 91 91 86 82 83 85 80 72 71 74 73 67 66 66 66 66 65 64 63 64 65 64 62 61 60 60 59 58 58 58 59 60 61 61 60 58 54 52 54 57 58 57 54 52 51 51 52 53 55 56 57 57 58 59 59 59 58 58 59 60 60 60 59 59 59 60 62
101 100 99 96 94 94 94 95 94 91 91 90 90 88 87 86 86 87 89 91 90 85 83 85 88 87 78 70 73 74 69 67 68 67 66 66 65 64 65 67 66 64 62 62 62 61 60 60 60 61 62 62 61 60 59 56 55 56 58 59 57 55 55 54 53 53 54 56 58 59 60 60 61 61 61 60 60 61 61 62 62 62 62 62 62 65
100 99 97 95 93 94 95 96 95 92 91 91 90 88 87 88 88 87 87 89 88 85 86 88 89 88 79 70 71 75 72 69 70 69 68 68 67 67 67 68 68 67 66 65 65 65 64 63 62 62 62 60 59 58 58 57 57 58 59 59 59 58 58 57 56 55 56 58 60 61 62 62 62 63 63 63 63 63 63 64 65 65 65 64 65 68
99 98 96 94 92 92 93 94 93 91 91 91 90 88 89 90 90 88 87 87 87 88 89 91 91 87 79 74 73 75 75 72 71 72 71 70 70 70 69 68 68 68 68 68 67 67 67 67 66 64 61 59 58 58 59 59 59 59 60 60 61 61 61 60 60 59 58 59 60 62 62 63 63 65 65 65 66 67 67 66 67 67 67 66 69 72
98 96 93 90 89 90 92 94 94 94 94 93 92 91 91 91 91 90 89 87 88 91 93 93 92 86 80 77 75 76 77 76 73 74 74 73 73 74 73 70 69 70 70 69 69 69 69 69 69 68 65 63 61 62 62 62 63 63 64 64 64 64 63 62 61 61 60 60 61 63 64 65 66 67 67 68 71 72 71 70 69 69 69 70 74 76
99 97 94 93 93 94 96 97 99 99 98 97 96 94 92 90 90 90 90 87 88 91 93 92 91 86 82 80 78 78 79 78 76 75 75 75 75 76 75 74 73 73 72 71 70 69 70 70 70 70 69 68 67 67 67 67 67 66 67 66 66 65 63 61 61 60 60 60 61 63 65 66 67 68 70 72 74 74 73 72 71 71 72 75 77 78
98 98 97 96 97 97 99 100 101 101 102 101 99 96 94 92 92 92 91 89 90 91 91 91 90 87 85 83 81 80 80 79 78 77 76 76 77 77 77 77 77 75 74 73 72 71 70 70 70 70 70 70 70 70 69 69 69 68 68 67 66 65 63 61 61 61 61 62 63 63 64 66 68 70 72 73 75 74 74 74 73 73 75 78 79 80
99 98 98 98 98 99 100 102 103 104 105 104 100 98 98 97 95 93 92 91 91 90 88 89 90 89 88 85 83 82 81 81 80 80 79 79 78 78 78 79 79 78 77 75 74 73 71 71 71 71 71 71 72 72 72 71 71 70 69 69 68 67 67 65 65 65 65 66 65 65 65 67 70 71 72 73 74 75 75 75 74 75 77 80 81 83
102 102 102 101 101 101 103 104 105 105 105 103 101 101 101 100 96 93 92 91 91 90 88 88 90 90 88 86 85 84 84 83 82 82 81 81 81 80 80 82 83 81 80 77 76 75 74 73 73 73 73 73 73 74 74 74 74 73 72 72 71 71 71 71 70 70 70 69 68 68 68 69 70 72 72 73 75 77 76 75 75 77 80 83 84 85
105 105 105 105 105 105 106 106 105 104 104 103 103 103 102 101 99 97 96 93 92 92 91 90 90 90 88 88 87 87 86 85 84 83 82 83 84 84 83 85 85 84 82 80 78 77 76 76 75 75 75 75 75 75 76 76 76 76 76 76 76 76 75 75 75 74 74 72 71 71 71 70 71 73 74 75 77 77 76 75 78 82 84 86 87 88
109 108 107 106 107 107 106 105 104 105 105 105 105 105 105 104 103 101 100 97 95 95 94 93 91 88 88 89 90 89 89 88 87 86 85 85 86 87 87 86 86 85 84 82 81 79 79 78 77 77 77 76 76 77 77 78 78 78 79 79 78 78 78 77 77 75 75 74 73 73 72 71 72 75 77 79 79 78 78 81 85 87 88 89 90 91
110 110 110 108 108 107 105 105 106 107 108 108 108 108 107 108 107 105 103 99 97 96 95 94 92 87 87 90 92 92 92 91 89 89 87 86 87 89 90 89 88 86 85 84 83 81 80 79 79 79 78 78 78 78 78 78 78 78 79 80 80 80 79 79 78 76 75 75 75 75 76 76 77 79 81 82 82 82 83 86 89 90 90 91 93 95
109 111 111 110 110 109 108 109 109 109 110 110 110 109 108 109 108 106 104 101 100 98 96 96 94 87 86 91 94 95 95 94 92 91 90 90 90 91 92 91 90 88 86 85 85 84 82 81 80 80 79 80 79 79 79 78 78 78 79 80 81 81 81 81 80 80 79 79 79 81 82 83 82 82 83 83 83 84 86 89 91 92 93 94 96 97
111 112 113 112 112 111 111 110 110 110 111 110 108 108 108 108 107 107 106 104 103 100 97 98 95 86 83 89 94 96 97 97 96 95 94 93 94 93 93 92 91 90 89 87 86 85 84 82 80 80 79 80 80 80 80 79 80 80 81 82 83 83 83 83 83 83 83 84 85 85 85 84 84 83 84 85 86 88 90 92 93 94 96 97 98 99
113 113 114 114 114 114 112 111 110 109 108 108 108 108 109 109 109 109 109 108 107 103 100 99 95 86 82 87 93 95 97 98 99 99 98 97 96 95 94 93 93 93 92 91 89 87 86 84 83 81 80 80 80 80 80 81 82 82 83 84 85 86 86 87 87 87 88 88 87 85 85 85 85 86 87 88 90 91 93 94 95 97 98 99 100 101
117 117 117 117 116 115 113 111 109 109 110 111 112 113 114 114 115 114 115 114 111 106 104 101 94 86 82 85 93 96 96 98 101 101 100 99 99 99 97 95 94 95 95 94 92 90 88 87 86 84 83 82 81 81 81 82 83 83 84 86 87 88 89 90 90 91 90 89 87 85 85 86 87 88 90 91 92 93 95 96 97 98 99 100 102 103
121 120 119 118 117 116 114 114 113 115 116 117 117 117 117 118 118 118 118 115 110 107 106 102 94 86 82 84 93 98 98 98 100 101 101 101 101 101 100 98 97 97 97 97 95 94 92 90 88 86 85 84 83 83 83 83 84 84 84 86 87 88 90 91 92 92 91 89 87 86 87 88 89 90 91 93 94 95 96 97 98 100 101 102 104 105
122 121 119 118 117 117 116 116 117 118 118 118 117 117 117 118 118 118 116 113 110 109 107 102 96 90 85 85 92 98 101 100 99 100 101 102 103 103 102 101 99 98 98 98 98 96 94 92 91 89 87 86 85 85 86 86 85 85 85 86 87 88 89 91 91 92 91 89 88 88 89 89 90 92 93 94 96 97 98 99 100 102 103 104 106 107
119 118 118 118 118 118 118 118 119 118 118 118 118 118 118 118 118 117 115 112 113 114 109 104 100 96 91 89 90 93 98 100 100 100 101 102 103 104 103 102 101 99 99 99 99 98 96 94 93 92 92 90 89 89 89 89 89 88 88 88 89 89 90 90 90 90 90 90 90 91 91 92 92 94 95 96 97 99 100 101 103 104 105 107 108 109
114 114 116 118 118 119 119 119 119 120 120 120 119 119 118 118 117 116 114 114 115 115 111 107 105 102 97 93 90 91 95 96 97 99 101 103 104 104 104 103 102 101 101 100 100 100 98 97 95 95 94 94 94 93 93 93 93 92 92 91 91 91 91 90 90 90 91 92 92 93 93 94 95 96 97 98 100 101 102 104 105 106 107 108 109 109
110 111 114 116 118 119 120 120 120 121 121 121 120 119 117 116 116 115 114 115 116 114 111 110 109 104 101 98 95 94 96 97 97 98 100 103 105 105 105 105 105 105 104 103 103 102 100 99 98 97 97 96 96 96 96 96 96 96 95 94 94 93 93 92 92 93 93 94 94 95 96 96 97 99 100 101 102 103 104 106 107 108 108 109 110 111
107 109 111 113 114 116 118 119 119 120 122 121 119 116 115 115 115 115 116 116 117 115 113 113 111 106 102 102 100 100 100 102 103 102 102 104 106 106 106 107 107 107 107 106 105 104 103 101 100 100 99 99 99 99 99 99 98 98 98 97 96 96 95 95 96 96 96 97 97 98 98 99 100 101 102 103 104 105 106 107 108 109 110 111 112 114
101 103 106 109 110 112 114 115 116 118 119 118 115 112 113 116 117 117 116 117 117 117 116 114 111 107 105 105 106 105 105 105 105 105 106 107 109 109 108 107 107 107 108 108 108 107 106 105 105 104 104 103 103 102 101 100 100 100 99 98 98 98 98 98 98 98 99 99 100 100 101 101 102 103 104 106 107 108 108 109 110 111 112 114 115 116
98 99 102 107 110 112 113 114 116 117 116 112 109 110 114 116 116 116 116 117 118 118 117 114 111 108 106 106 107 109 109 108 108 108 109 110 111 111 109 107 105 105 107 108 109 108 108 108 108 108 107 106 105 103 102 101 101 101 101 100 100 100 100 101 101 101 101 102 102 102 103 104 105 106 107 108 109 110 110 111 112 114 115 116 118 119
101 101 103 106 110 114 116 118 119 117 114 110 109 112 115 115 115 116 117 117 118 118 117 115 113 111 108 107 108 111 113 113 113 113 113 112 112 112 110 107 104 104 105 107 107 108 109 109 109 109 108 107 106 105 103 103 103 103 102 102 103 103 103 103 103 104 104 104 105 105 106 107 108 109 110 111 112 112 113 114 115 117 118 119 120 121
104 104 104 106 109 112 114 116 116 112 108 106 106 108 110 110 112 114 114 114 115 116 116 114 112 112 111 109 109 111 114 115 115 114 114 114 114 112 110 106 104 104 105 106 107 107 108 109 109 109 109 108 108 108 107 106 105 104 104 105 105 105 106 106 106 106 107 107 108 108 108 109 110 111 112 113 114 115 116 118 119 120 121 122 122 123
103 102 102 103 104 104 104 105 106 104 102 100 99 99 100 102 106 111 112 112 112 113 112 111 111 111 111 111 112 113 114 115 113 111 111 112 113 113 111 108 107 107 107 107 107 107 108 108 108 109 109 109 110 110 110 109 108 107 107 107 107 108 108 108 109 109 110 110 110 111 111 112 113 114 115 116 118 119 120 121 122 123 123 124 125 125
102 100 99 99 98 98 97 96 96 96 93 89 88 91 94 98 102 108 110 107 106 108 110 110 110 111 112 113 115 116 117 114 110 108 110 111 111 112 113 113 112 110 109 108 107 107 107 108 108 108 109 110 111 111 111 110 110 109 109 109 110 110 111 111 112 113 113 113 114 114 114 115 116 117 118 119 120 121 122 123 124 125 126 126 127 128
103 102 102 103 101 99 97 95 94 90 85 82 82 87 91 94 97 103 105 102 101 106 109 109 109 111 114 116 116 117 116 113 109 108 112 113 113 113 115 115 114 111 110 109 108 108 108 109 109 109 110 111 112 112 112 113 113 113 113 113 113 113 113 114 115 116 116 116 117 117 118 118 119 120 121 122 123 124 125 127 127 128 128 129 129 129
105 105 105 104 102 99 97 96 94 88 82 79 80 82 85 88 92 96 96 94 95 101 106 109 110 111 113 116 117 116 113 111 109 110 113 115 115 114 113 113 113 111 109 109 109 110 110 111 111 111 112 112 112 113 114 114 115 115 116 116 116 116 116 117 117 118 118 119 119 120 121 122 122 123 124 125 126 127 128 129 130 130 130 130 130 131
105 103 103 101 98 96 95 94 91 85 80 78 78 79 81 85 88 88 86 88 91 96 103 109 111 111 112 113 114 114 112 111 110 111 112 113 114 113 111 110 111 111 111 110 110 111 112 112 112 112 113 113 113 113 114 114 115 116 117 117 118 119 119 119 119 120 120 121 122 122 123 124 125 126 127 128 129 130 130 131 131 131 131 131 131 131
101 100 99 97 94 92 90 89 87 81 76 76 77 78 79 81 81 81 83 88 92 95 101 106 107 108 109 109 109 111 112 112 111 110 111 112 113 113 112 110 109 110 111 112 112 112 112 113 113 113 113 113 113 113 114 114 115 116 117 118 119 120 120 121 121 122 122 123 124 125 125 127 128 128 129 130 131 131 131 131 131 131 131 131 132 133
96 95 93 90 87 86 85 84 81 74 71 74 78 78 78 77 76 78 85 90 92 93 97 99 99 101 103 105 106 107 108 110 110 109 109 110 111 113 112 110 109 108 108 109 111 112 113 113 113 113 113 113 113 113 114 114 115 116 117 119 120 121 122 122 123 124 124 125 126 127 128 129 130 131 131 132 132 132 131 131 131 131 131 132 132 133
86 82 78 75 75 76 77 76 73 69 69 74 78 77 77 77 77 80 86 90 91 91 92 93 94 95 98 101 103 105 106 107 108 108 108 109 110 111 112 111 110 108 106 106 106 108 110 112 113 113 113 113 113 113 114 115 115 116 117 118 119 121 122 123 124 125 126 127 128 129 130 130 131 131 131 131 131 130 130 130 130 131 131 132 133 133
72 67 64 62 61 62 63 65 66 66 67 70 73 74 75 76 77 80 84 87 88 88 88 88 88 89 92 95 98 101 103 103 104 104 105 106 107 108 109 109 109 108 107 105 104 103 105 107 110 112 113 114 114 114 114 114 115 115 117 118 119 120 121 122 124 125 126 126 127 128 128 128 128 128 128 128 128 128 129 129 129 130 130 131 131 131
72 69 67 63 59 57 55 55 58 62 63 64 67 70 72 73 75 78 81 83 83 83 82 82 82 83 85 87 90 94 96 98 99 100 100 101 103 105 107 108 109 109 109 108 106 104 103 103 105 107 109 111 113 114 114 114 114 115 116 116 117 118 119 121 121 122 123 124 124 125 125 125 125 125 126 126 126 126 127 127 127 127 127 128 128 128
73 73 70 66 62 57 51 50 54 58 60 62 63 66 69 71 73 76 79 79 79 79 79 79 79 79 79 81 83 86 89 92 95 97 98 98 99 101 104 107 109 110 110 110 109 108 106 104 104 103 104 105 107 109 110 112 112 113 114 114 115 116 117 118 119 120 120 121 121 122 122 122 122 123 123 123 124 124 124 124 125 125 125 125 126 127
73 73 71 67 62 56 50 51 55 59 60 61 61 62 66 69 71 73 76 78 78 77 76 75 75 75 76 77 79 82 85 88 91 93 95 96 97 99 101 103 106 109 110 111 112 111 109 107 105 105 104 104 104 104 105 106 107 108 109 110 111 112 113 114 115 116 116 117 118 118 119 119 119 120 120 120 121 121 121 122 122 123 124 125 126 126
78 77 72 67 62 57 52 53 57 59 60 61 61 62 66 69 71 72 74 76 76 75 73 72 72 73 73 75 77 80 83 86 88 90 92 94 95 96 98 99 102 105 108 110 112 113 112 110 108 107 107 106 106 105 105 105 105 105 106 106 107 108 109 110 110 111 111 112 113 114 114 115 116 117 117 118 119 120 121 121 122 123 124 125 125 126
79 77 72 69 64 58 54 55 59 61 62 64 65 67 69 71 72 72 73 75 76 75 73 72 71 72 72 73 74 76 79 81 83 86 88 90 92 93 94 96 98 100 103 106 109 111 113 113 112 110 109 109 108 108 108 107 107 107 107 108 108 109 109 109 110 110 111 112 113 114 115 116 116 118 118 119 120 121 122 122 123 124 125 126 126 127
80 78 76 73 67 60 57 59 62 63 64 66 67 69 69 70 71 72 73 74 74 74 73 72 72 72 72 72 73 74 75 77 78 80 83 85 87 89 91 93 94 96 99 101 104 106 109 111 113 113 112 112 111 111 110 110 110 110 110 110 111 111 112 112 113 113 114 115 116 117 117 118 119 120 121 122 122 123 124 125 126 127 127 128 129 130
Wind_Direction
225 224 225 225 225 225 225 226 226 226 227 228 229 230 231 232 232 232 235 237 237 237 235 233 232 233 235 235 236 237 238 239 240 240 241 242 242 241 241 241 241 241 242 241 241 246 249 246 249 257 260 262 262 265 270 272 276 279 279 277 278 281 282 280 279 279 281 284 287 289 292 294 297 299 301 303 305 308 311 312 313 313 312 312 312 316
225 224 224 224 224 224 225 225 226 226 227 228 228 230 232 232 233 233 235 236 236 236 236 235 233 234 235 235 235 236 237 238 238 238 241 244 246 245 244 243 244 244 244 243 241 243 247 245 245 250 256 260 262 264 266 270 274 275 276 277 279 281 281 279 277 277 280 282 284 287 289 291 293 295 296 299 302 305 307 309 311 312 311 310 310 313
225 224 224 224 223 224 225 226 226 227 228 228 228 229 231 231 232 233 235 236 237 236 237 237 236 235 236 236 235 236 237 237 237 238 240 243 246 246 245 244 245 246 245 244 244 245 247 248 247 247 249 255 258 260 264 270 272 273 275 278 279 280 279 277 276 278 279 280 282 284 287 289 291 292 293 296 299 302 304 306 308 310 310 309 308 310
225 224 224 224 223 223 224 225 226 227 228 228 228 228 229 229 230 231 234 236 238 237 237 239 238 237 238 238 236 235 235 237 237 238 240 242 244 245 244 244 245 247 247 247 248 248 249 250 251 250 249 250 254 258 263 268 270 271 273 275 278 279 278 276 276 278 279 279 280 282 285 287 289 290 291 295 298 300 301 304 306 308 308 307 307 308
224 224 224 223 223 223 223 224 225 227 228 228 228 227 228 229 229 230 232 234 236 237 236 238 239 238 240 241 239 236 235 236 237 239 241 242 243 244 245 245 246 248 250 251 251 251 251 252 253 254 253 251 252 256 261 265 267 270 272 274 278 279 279 278 277 277 278 278 279 281 284 285 287 288 290 294 296 297 299 301 303 305 305 306 306 307
224 224 224 224 224 223 223 224 225 226 227 228 228 228 228 229 230 230 231 233 234 236 236 237 238 238 240 242 241 239 237 238 239 239 241 243 244 246 246 246 248 250 252 253 252 253 253 253 254 255 255 254 252 254 258 263 266 269 271 273 276 278 279 279 278 277 277 278 278 279 283 285 285 287 289 292 294 295 297 299 301 302 303 303 304 305
224 224 224 225 225 224 224 224 225 226 227 228 228 228 228 228 230 232 233 233 234 236 236 237 238 237 240 243 243 242 242 241 242 241 241 243 244 246 246 247 249 250 251 252 252 253 255 255 255 256 257 257 256 256 259 263 264 266 268 271 274 276 276 276 277 277 277 278 278 278 280 282 283 285 287 290 292 293 295 297 298 300 300 300 301 303
224 224 224 225 224 224 224 224 225 226 226 227 227 228 228 229 230 232 232 233 234 235 236 236 237 236 238 242 244 244 244 244 245 245 244 244 244 245 246 247 249 250 250 250 251 253 256 256 256 256 257 258 259 259 259 260 260 262 266 269 272 272 272 274 276 278 277 278 278 278 279 281 282 284 285 289 292 292 293 295 297 297 297 298 299 302
224 224 224 224 224 223 223 223 224 225 226 226 227 228 229 229 230 231 232 232 233 235 235 235 236 236 236 239 243 244 244 244 246 246 245 244 244 244 245 246 248 249 249 249 250 253 256 257 256 256 257 258 259 258 257 256 257 259 264 268 270 270 271 273 276 277 277 276 278 279 279 280 282 284 285 288 291 292 293 295 295 295 295 296 298 300
222 223 224 224 224 223 223 223 224 225 225 226 228 229 230 231 231 231 232 233 234 235 235 235 237 237 234 235 242 244 243 243 244 245 245 244 243 244 245 246 247 248 249 249 251 254 256 257 257 257 257 257 257 257 257 256 256 258 263 266 267 268 269 270 272 274 275 275 277 278 279 280 282 284 285 287 290 292 293 294 294 294 294 295 296 298
222 223 224 224 224 224 224 225 225 225 226 227 228 230 230 231 231 232 232 234 235 236 235 235 238 239 234 234 240 243 242 241 241 243 244 243 243 243 244 245 247 248 249 250 253 255 255 256 256 256 256 257 257 258 258 257 256 257 261 265 266 267 268 269 269 271 273 275 275 276 279 281 282 284 284 286 289 292 293 293 293 293 293 294 295 297
224 224 225 225 225 225 226 226 226 226 227 227 228 229 230 231 231 231 232 234 236 236 233 235 239 241 238 234 238 242 241 240 241 241 241 242 242 242 242 244 246 247 249 250 252 253 253 253 254 255 255 256 258 258 259 259 260 259 261 264 266 267 268 269 270 271 272 274 275 277 279 281 282 283 283 285 289 292 292 292 292 292 292 292 294 296
225 226 227 227 226 227 227 227 227 227 227 228 229 229 230 231 231 232 233 234 236 235 233 235 238 240 238 231 232 239 240 238 239 238 238 240 242 242 242 243 245 247 248 249 251 252 252 252 252 254 255 257 258 258 259 261 263 263 264 265 266 267 268 269 270 271 272 273 275 277 279 280 281 282 283 285 288 290 291 291 291 291 291 291 293 295
226 227 228 228 229 229 229 229 229 228 228 228 228 228 229 230 231 231 232 232 233 232 232 234 235 236 236 229 228 235 239 238 238 239 238 238 241 243 243 243 245 247 248 249 251 251 251 250 250 251 253 256 256 257 258 261 263 264 265 266 268 269 271 271 271 272 272 272 274 275 277 278 279 280 281 283 286 288 289 291 291 290 290 290 292 295
226 227 229 230 230 230 230 230 230 229 228 227 227 227 228 230 231 231 231 231 230 230 231 233 234 235 233 230 228 231 236 238 238 239 240 239 240 243 243 243 244 246 247 248 250 250 250 250 250 251 253 254 255 257 259 260 262 263 265 266 268 270 272 272 272 272 272 272 273 273 274 275 276 278 280 282 284 285 287 289 290 288 288 289 291 294
225 226 227 228 228 228 228 229 229 229 228 228 227 228 228 230 231 231 231 230 230 231 233 234 235 236 233 232 231 231 233 236 237 238 240 240 241 242 244 244 244 244 246 247 248 249 249 250 251 252 253 255 256 258 260 261 262 263 265 267 268 269 270 270 270 270 270 271 272 273 273 274 276 278 279 280 282 283 286 289 288 286 286 288 291 293
227 227 227 228 228 228 229 229 230 229 229 228 228 228 229 229 230 230 231 231 231 231 232 233 234 235 234 233 233 232 232 234 237 238 239 240 241 242 244 245 245 245 245 246 248 249 250 250 251 253 254 256 258 259 260 261 262 263 265 266 266 266 267 267 268 269 270 271 272 273 275 276 278 278 278 279 281 283 286 288 286 285 285 288 290 292
228 228 229 230 230 230 230 230 231 231 230 229 229 229 229 229 230 230 231 231 232 232 231 232 233 233 234 234 233 232 231 232 235 237 238 239 240 241 243 245 246 247 247 248 249 250 251 252 252 254 256 257 259 260 261 262 262 263 263 264 265 265 265 266 267 269 270 271 272 274 276 278 278 277 278 279 280 283 286 286 284 283 285 287 290 291
228 228 228 229 230 230 230 230 230 231 231 231 230 230 230 231 230 231 232 232 233 233 231 231 232 232 233 234 233 232 232 232 233 235 237 239 240 240 241 244 246 248 249 250 251 251 252 253 254 255 257 259 260 261 262 262 262 262 262 263 264 264 265 266 268 269 270 271 272 274 276 277 276 276 276 277 280 283 284 283 282 283 285 287 289 291
228 228 228 229 230 230 230 231 231 231 232 231 231 231 232 232 232 232 232 232 232 233 232 232 232 232 232 233 233 233 233 233 232 233 235 238 240 240 240 242 245 248 250 252 252 252 253 254 255 256 257 258 260 261 261 262 262 262 262 263 264 265 266 268 269 271 271 272 272 274 275 275 274 274 274 276 279 281 281 280 281 283 285 287 289 291
228 229 229 230 231 232 232 232 232 233 233 232 231 231 232 232 232 232 232 232 232 233 233 233 233 232 231 231 232 233 233 233 231 231 233 236 239 241 241 242 244 246 249 251 252 253 254 254 255 255 257 258 259 260 261 262 263 263 263 264 265 266 267 268 270 271 272 273 273 273 274 274 274 273 274 276 278 279 279 280 282 283 285 287 289 290
229 230 230 231 232 233 233 233 233 233 233 233 232 232 232 233 233 233 233 233 233 234 234 234 233 232 232 231 230 232 233 233 233 232 231 234 238 241 242 242 243 245 247 250 252 253 254 254 255 256 257 258 259 260 261 262 264 264 265 265 266 267 268 269 270 271 272 273 274 276 277 277 277 276 276 276 277 279 279 280 282 284 286 287 289 291
230 231 231 231 232 232 233 233 234 234 234 233 233 233 234 234 235 235 234 234 234 234 234 235 234 232 233 233 231 232 233 233 234 234 232 233 236 239 242 243 245 246 247 249 251 252 253 254 255 256 258 259 261 262 263 264 264 264 265 265 266 267 268 269 270 271 273 275 276 278 280 281 280 278 276 276 277 277 279 280 283 285 287 288 290 291
229 230 231 232 232 232 233 234 234 234 234 234 235 235 235 236 236 236 236 235 234 234 234 236 235 232 233 235 233 232 233 234 235 236 235 234 235 238 241 243 245 247 248 249 250 252 253 254 255 256 258 259 261 262 263 264 264 264 264 265 266 267 268 269 271 272 274 275 277 279 280 281 280 278 277 276 277 278 280 282 284 286 287 289 290 291
230 231 231 232 232 233 233 234 235 236 236 236 236 236 236 236 236 236 236 235 235 234 234 235 235 232 232 236 236 233 233 235 235 236 237 237 237 238 239 241 244 246 247 249 250 251 252 254 255 256 257 259 260 262 262 263 264 264 264 265 266 267 268 269 271 272 273 275 277 279 280 281 280 279 279 279 280 281 282 284 285 286 287 289 290 291
230 231 231 232 233 233 234 235 236 237 237 236 236 236 235 235 235 235 235 235 234 234 234 235 234 231 231 235 238 237 235 234 236 237 237 238 239 239 239 240 242 245 247 248 249 250 251 253 254 256 257 259 260 261 262 263 264 265 265 266 266 267 268 269 270 272 273 275 277 278 280 281 281 281 281 281 282 283 283 284 285 286 288 289 290 291
231 231 231 232 233 233 234 234 235 235 236 235 235 235 235 235 235 235 236 236 236 235 236 236 234 232 232 235 238 240 238 236 235 237 237 238 238 239 239 240 240 242 245 247 249 250 251 252 254 255 257 259 260 261 261 262 263 264 265 266 267 267 268 269 270 272 274 275 276 278 280 281 281 281 281 282 282 283 284 284 286 287 288 289 290 291
232 232 232 233 234 235 235 235 236 236 237 237 237 237 237 238 238 237 237 238 238 237 237 237 236 234 234 236 239 241 242 240 237 237 237 238 238 239 239 240 241 241 243 246 248 249 251 252 254 255 256 257 259 259 260 261 262 263 264 266 266 267 268 269 270 271 273 274 275 277 279 280 280 280 281 281 282 283 284 285 286 287 287 288 289 290
234 234 234 235 235 236 236 236 237 238 238 239 239 239 239 239 240 240 239 239 240 239 238 238 238 236 235 236 239 241 244 244 242 240 240 240 240 240 241 242 242 243 243 245 247 249 251 252 254 255 256 256 257 258 259 260 261 262 263 264 265 266 267 268 269 270 271 273 274 276 278 279 279 280 280 281 281 282 283 284 285 286 287 287 288 289
236 236 236 236 237 237 237 238 238 239 239 239 239 240 240 241 241 241 241 241 241 241 240 239 239 239 238 237 238 241 243 245 245 244 242 242 241 242 242 243 244 244 245 246 248 250 251 252 253 254 255 256 256 257 258 259 260 261 262 263 264 266 267 268 268 269 270 272 273 275 277 278 278 278 279 280 280 281 282 283 284 285 286 287 288 289
238 238 238 238 238 238 238 239 239 240 240 240 240 240 241 242 243 243 243 243 242 242 242 240 239 239 240 239 239 241 243 245 245 245 244 244 243 242 242 243 244 245 246 247 248 249 251 252 253 254 254 255 256 257 258 258 259 261 262 263 264 265 266 266 267 268 269 270 272 273 274 275 276 276 277 278 279 280 281 282 283 284 286 287 288 288
239 240 240 240 240 240 240 240 241 241 241 241 241 242 243 244 244 244 244 243 243 243 242 242 240 240 241 241 240 241 243 245 246 246 246 246 246 245 244 244 245 246 247 248 248 248 249 250 252 253 254 255 256 257 258 259 260 261 261 262 263 264 265 265 266 267 268 269 270 271 272 273 274 275 276 277 278 279 280 281 283 284 285 286 287 287
240 241 241 242 242 242 242 242 242 243 243 243 243 243 244 244 245 245 245 245 245 244 243 243 242 241 241 242 243 243 244 246 247 248 248 249 249 249 248 247 247 248 248 249 248 248 249 249 251 252 254 255 256 257 258 259 260 261 261 262 262 263 264 264 265 266 267 268 269 270 271 272 273 274 275 276 277 278 280 281 282 283 284 285 286 286
239 240 241 242 242 242 242 242 243 243 243 244 244 244 245 245 245 246 246 246 246 246 246 245 244 243 242 243 244 245 245 246 247 249 249 250 251 252 251 250 249 248 249 249 250 250 250 251 251 252 253 254 255 256 258 259 260 261 261 261 262 262 263 264 265 266 267 268 269 270 270 271 272 273 274 276 277 278 279 281 282 283 283 284 285 285
239 240 241 241 242 242 242 242 242 243 244 244 245 245 246 246 246 246 246 247 247 247 247 247 246 246 244 243 244 245 246 247 247 249 250 251 252 253 253 252 251 250 250 250 250 251 251 251 252 253 253 254 254 256 257 258 259 261 261 262 262 262 263 263 264 265 266 267 268 269 270 271 272 273 274 276 277 278 279 280 281 282 283 283 284 285
241 242 243 243 244 244 244 245 245 245 246 246 246 247 248 249 249 248 248 248 248 248 248 248 248 247 246 245 245 246 247 248 248 250 251 252 252 253 253 253 253 253 252 252 252 252 252 252 252 253 253 254 254 255 256 257 259 260 262 262 263 263 263 264 264 265 266 267 268 269 270 271 272 273 274 276 276 277 278 279 280 281 282 283 284 285
244 245 246 247 248 249 249 250 250 250 249 249 249 250 252 253 252 250 249 248 249 250 250 249 249 248 247 247 246 246 247 248 249 250 250 251 252 252 253 253 253 254 254 254 253 253 253 253 253 254 254 254 255 255 256 257 258 260 261 262 263 264 264 264 265 265 266 267 268 269 270 271 272 273 274 275 275 276 277 278 280 281 282 283 284 285
246 247 248 249 250 251 252 253 253 253 253 254 255 256 255 256 255 253 251 249 250 251 250 249 249 248 248 247 247 246 247 247 248 249 249 249 250 252 253 253 253 254 254 254 254 254 254 254 254 254 254 254 255 255 256 257 258 259 260 261 262 263 264 264 265 265 266 267 268 269 270 270 271 272 273 274 275 276 277 279 280 281 282 283 284 284
247 248 250 250 251 252 253 254 255 255 256 256 257 257 256 256 257 256 253 251 251 251 250 249 249 248 247 247 247 247 247 247 247 248 248 249 250 252 253 254 254 254 254 254 254 253 254 254 254 254 254 254 255 255 256 257 258 259 260 261 262 262 263 263 264 264 265 266 267 268 269 270 271 272 273 274 275 276 278 279 280 281 282 282 283 284
249 250 251 252 252 253 254 255 255 255 255 255 255 256 256 256 257 257 256 254 251 250 250 249 248 247 247 247 246 246 246 246 245 246 247 249 251 252 253 253 254 254 253 253 253 253 253 253 253 254 254 255 255 256 257 257 258 259 260 261 262 262 263 264 264 265 266 266 267 268 269 270 271 272 273 275 276 277 278 279 280 281 282 282 283 284
250 251 252 252 253 253 254 255 255 254 253 253 252 253 255 256 256 257 258 256 252 249 248 247 246 246 246 246 246 246 246 245 245 245 247 249 250 251 251 252 252 253 253 252 252 253 253 253 254 254 255 256 256 256 257 257 258 259 260 261 262 263 263 264 265 266 266 267 268 269 270 271 272 273 274 275 276 277 278 279 280 281 281 282 283 284
251 253 254 255 255 255 255 255 254 253 252 252 252 252 254 256 257 257 256 255 252 249 247 246 246 245 245 245 246 246 246 245 245 245 246 247 249 249 250 250 250 251 252 252 252 253 253 253 254 254 255 255 256 256 257 257 258 258 259 260 261 262 263 263 264 265 266 267 268 269 270 271 272 273 274 275 276 277 278 279 280 280 281 282 283 283
253 255 256 257 257 257 256 255 255 255 254 253 253 253 254 254 253 253 252 252 252 250 248 247 246 245 245 245 245 245 245 245 244 244 245 246 247 248 249 249 249 250 251 252 253 253 253 253 253 254 255 255 256 256 257 257 257 258 258 259 260 261 262 262 263 264 265 266 267 268 269 270 271 272 273 274 275 276 277 278 279 280 281 282 282 283
254 256 257 258 258 258 258 257 256 254 252 251 252 252 252 250 249 249 250 252 252 252 250 249 248 246 245 244 244 244 244 244 244 244 244 245 246 247 248 248 248 248 249 250 251 253 253 254 254 254 255 255 256 256 257 257 258 258 259 259 260 260 261 262 263 264 265 266 267 268 269 270 271 272 273 274 275 276 277 278 279 280 280 281 282 282
254 255 255 255 257 257 257 256 254 252 249 249 251 252 251 250 249 249 251 253 254 254 254 252 251 249 247 246 246 245 245 245 245 245 245 245 245 245 246 247 247 247 247 248 250 251 253 254 255 256 256 256 257 257 257 258 258 259 259 260 260 261 262 262 263 264 265 266 267 268 269 270 271 272 273 274 275 276 277 278 279 279 280 281 282 283
254 255 253 252 254 256 257 257 255 253 250 250 251 252 252 251 251 251 252 254 255 257 257 256 254 253 251 249 248 248 247 247 247 246 246 246 245 245 245 246 246 246 247 248 249 250 252 253 255 256 257 258 258 258 259 259 259 260 260 261 261 262 263 263 264 265 266 267 268 269 270 271 272 273 274 275 276 276 277 278 279 280 281 282 282 283
254 254 253 252 253 257 261 261 257 252 250 248 248 248 249 250 250 252 253 254 255 256 257 257 256 255 254 252 250 249 249 249 248 248 248 248 248 247 247 247 247 247 247 247 248 250 251 252 253 254 256 257 258 259 260 261 261 262 262 263 263 264 264 265 265 266 267 268 269 270 271 272 273 273 274 275 276 277 278 279 279 280 281 281 282 283
251 253 253 252 253 257 263 264 261 256 252 249 247 247 248 249 250 251 253 254 255 255 255 256 257 256 256 254 253 251 250 250 250 250 250 250 250 250 249 249 249 248 248 248 248 249 250 252 252 253 254 255 256 257 259 260 261 262 263 264 265 265 266 267 267 268 269 269 270 271 272 272 273 274 275 275 276 277 277 278 279 280 280 281 282 282
252 253 255 255 255 260 268 270 267 261 255 250 247 246 246 248 248 249 251 253 254 255 255 255 256 257 256 256 255 254 253 252 251 251 251 251 251 251 251 251 251 250 250 249 249 249 250 251 252 253 254 255 256 257 258 259 260 261 262 263 264 265 266 267 267 268 269 269 270 271 271 272 273 274 274 275 276 276 277 278 279 279 280 281 281 282
252 255 257 257 258 264 269 266 260 257 253 249 246 245 245 247 249 251 253 255 257 258 258 258 258 258 258 258 258 257 257 255 254 253 253 252 252 252 253 253 252 252 252 251 251 251 251 252 253 254 255 256 257 258 258 259 260 261 262 262 263 264 265 266 267 267 268 269 270 270 271 272 273 274 274 275 276 277 277 278 279 279 280 281 281 282
253 255 257 258 261 266 266 259 254 254 253 250 249 248 249 251 253 256 257 259 261 262 262 262 261 261 260 260 259 259 258 257 257 256 255 254 254 254 254 254 254 254 254 254 253 253 253 254 254 255 256 257 258 259 260 261 261 262 263 264 265 265 266 267 267 268 269 270 270 271 272 273 273 274 275 275 276 277 277 278 279 279 280 281 281 282
Height
10717 10724 10733 10742 10748 10750 10753 10755 10760 10763 10763 10767 10773 10778 10784 10789 10793 10794 10798 10803 10809 10815 10820 10824 10826 10824 10828 10836 10840 10844 10849 10852 10855 10858 10860 10862 10865 10868 10870 10872 10873 10873 10875 10878 10878 10877 10878 10879 10880 10881 10881 10881 10882 10882 10883 10884 10884 10884 10884 10884 10884 10884 10883 10883 10883 10882 10881 10881 10880 10880 10879 10879 10878 10877 10876 10874 10873 10872 10871 10870 10869 10868 10867 10865 10864 10863
10710 10720 10729 10735 10739 10739 10743 10748 10753 10757 10758 10763 10770 10774 10779 10784 10787 10787 10791 10796 10801 10809 10813 10817 10821 10820 10823 10831 10836 10840 10845 10847 10850 10853 10856 10858 10861 10864 10866 10867 10868 10869 10872 10873 10872 10872 10873 10874 10875 10876 10877 10877 10878 10878 10879 10880 10880 10880 10880 10880 10880 10880 10880 10880 10879 10878 10878 10877 10876 10876 10875 10875 10874 10873 10872 10871 10869 10868 10867 10865 10864 10863 10862 10860 10859 10857
10705 10716 10723 10726 10729 10733 10738 10743 10748 10751 10753 10759 10766 10769 10772 10777 10779 10779 10783 10788 10794 10803 10807 10811 10817 10816 10817 10826 10833 10837 10841 10843 10846 10849 10852 10855 10857 10859 10860 10862 10864 10866 10868 10868 10868 10868 10868 10870 10870 10871 10872 10872 10873 10874 10875 10876 10876 10876 10876 10877 10877 10876 10876 10876 10875 10874 10874 10873 10872 10871 10871 10870 10870 10869 10868 10867 10865 10864 10862 10861 10860 10859 10857 10856 10854 10853
10700 10709 10714 10717 10722 10728 10732 10736 10741 10745 10747 10753 10760 10762 10764 10767 10769 10771 10775 10781 10789 10798 10802 10805 10812 10813 10813 10823 10831 10834 10836 10838 10842 10845 10847 10850 10852 10852 10854 10857 10859 10860 10861 10863 10863 10863 10864 10865 10866 10865 10866 10868 10869 10870 10870 10871 10871 10872 10872 10873 10873 10872 10872 10871 10871 10870 10870 10868 10867 10867 10867 10866 10866 10865 10864 10862 10861 10859 10857 10856 10855 10854 10853 10852 10850 10848
10692 10699 10704 10707 10713 10719 10724 10729 10735 10739 10741 10746 10752 10755 10756 10756 10760 10764 10768 10776 10784 10792 10798 10799 10806 10811 10811 10819 10827 10829 10831 10834 10838 10841 10843 10845 10846 10847 10850 10852 10853 10854 10855 10858 10859 10859 10859 10860 10861 10861 10862 10864 10864 10865 10865 10866 10867 10868 10868 10868 10868 10867 10867 10867 10867 10867 10865 10864 10863 10863 10862 10862 10861 10860 10859 10858 10856 10854 10852 10851 10851 10849 10848 10847 10845 10844
10684 10691 10697 10701 10706 10712 10718 10724 10728 10731 10734 10738 10744 10748 10748 10749 10753 10758 10763 10772 10778 10785 10792 10793 10802 10811 10808 10814 10823 10824 10827 10830 10833 10838 10839 10840 10841 10843 10845 10846 10847 10848 10850 10852 10853 10854 10855 10855 10857 10857 10858 10859 10860 10860 10861 10862 10863 10863 10863 10864 10863 10863 10862 10863 10863 10862 10861 10860 10859 10859 10858 10857 10856 10856 10855 10854 10852 10849 10848 10847 10846 10845 10843 10842 10841 10839
10676 10684 10690 10694 10700 10706 10713 10719 10722 10724 10728 10733 10738 10739 10739 10742 10747 10753 10760 10768 10773 10780 10786 10789 10800 10808 10803 10809 10818 10819 10824 10826 10828 10834 10835 10834 10837 10838 10839 10839 10840 10842 10844 10847 10848 10849 10849 10851 10852 10852 10853 10854 10855 10855 10857 10858 10858 10858 10858 10859 10859 10858 10858 10858 10858 10858 10857 10856 10855 10855 10854 10853 10852 10851 10851 10850 10847 10845 10843 10842 10841 10840 10839 10838 10836 10834
10672 10678 10682 10687 10694 10700 10709 10714 10714 10716 10720 10726 10729 10728 10730 10735 10742 10750 10755 10761 10767 10772 10778 10784 10794 10801 10801 10805 10812 10814 10819 10822 10823 10828 10830 10829 10831 10832 10832 10833 10834 10836 10838 10841 10843 10844 10844 10846 10847 10847 10848 10849 10850 10851 10853 10853 10853 10853 10853 10854 10853 10853 10853 10854 10854 10853 10852 10852 10851 10850 10849 10848 10847 10847 10846 10845 10843 10841 10839 10838 10836 10835 10834 10833 10831 10829
10665 10670 10674 10679 10684 10692 10701 10703 10701 10704 10711 10717 10719 10720 10724 10730 10738 10744 10746 10753 10759 10763 10773 10780 10784 10795 10801 10800 10802 10807 10815 10819 10819 10821 10823 10823 10825 10826 10826 10826 10828 10830 10833 10836 10838 10839 10839 10840 10841 10842 10843 10844 10844 10846 10847 10847 10847 10847 10848 10848 10848 10848 10848 10849 10849 10848 10848 10846 10846 10845 10844 10842 10842 10841 10840 10839 10838 10836 10834 10832 10831 10830 10829 10828 10826 10824
10652 10657 10660 10666 10674 10685 10691 10691 10693 10698 10706 10712 10713 10717 10721 10727 10734 10738 10741 10747 10751 10760 10773 10775 10776 10788 10797 10793 10792 10801 10811 10814 10813 10812 10814 10816 10818 10820 10820 10820 10822 10824 10827 10830 10832 10834 10834 10834 10836 10837 10838 10838 10838 10840 10841 10841 10842 10842 10842 10842 10842 10842 10843 10844 10843 10842 10842 10841 10841 10840 10839 10837 10837 10836 10835 10834 10832 10831 10829 10827 10825 10824 10823 10822 10821 10819
10644 10646 10652 10662 10674 10683 10685 10686 10691 10696 10703 10707 10709 10714 10719 10723 10728 10730 10736 10740 10744 10761 10771 10767 10768 10779 10790 10791 10787 10794 10805 10807 10806 10805 10807 10809 10811 10813 10814 10814 10816 10819 10822 10825 10826 10827 10828 10829 10829 10831 10831 10831 10832 10834 10835 10836 10836 10837 10837 10836 10836 10836 10837 10837 10837 10836 10836 10836 10835 10834 10833 10832 10831 10831 10830 10828 10827 10826 10824 10822 10820 10819 10818 10817 10815 10813
10642 10646 10653 10664 10673 10679 10680 10683 10688 10693 10699 10701 10704 10710 10712 10715 10719 10722 10729 10733 10742 10759 10763 10760 10760 10767 10785 10794 10785 10786 10796 10799 10799 10800 10800 10801 10803 10806 10807 10808 10811 10814 10817 10818 10819 10820 10821 10823 10823 10823 10824 10825 10827 10829 10829 10830 10831 10831 10831 10831 10830 10830 10830 10830 10830 10830 10830 10829 10829 10828 10827 10826 10825 10825 10824 10823 10822 10820 10819 10817 10815 10813 10812 10811 10809 10807
10642 10646 10653 10661 10668 10672 10675 10678 10683 10689 10693 10695 10701 10705 10704 10707 10712 10717 10724 10729 10740 10751 10752 10751 10750 10758 10782 10792 10780 10777 10785 10789 10791 10792 10793 10795 10796 10798 10801 10803 10805 10808 10810 10810 10812 10813 10814 10817 10817 10817 10818 10821 10823 10823 10824 10825 10825 10825 10825 10825 10825 10824 10824 10825 10824 10824 10824 10823 10822 10821 10821 10820 10819 10818 10817 10816 10815 10814 10813 10811 10809 10807 10806 10804 10802 10800
10638 10643 10650 10659 10666 10670 10672 10675 10680 10684 10685 10687 10692 10694 10693 10698 10704 10711 10717 10723 10732 10737 10737 10738 10738 10752 10774 10780 10775 10772 10773 10779 10784 10784 10786 10788 10789 10790 10793 10797 10799 10800 10802 10803 10805 10807 10808 10809 10810 10812 10813 10816 10817 10818 10819 10819 10819 10820 10820 10819 10819 10818 10819 10819 10818 10818 10818 10817 10816 10816 10816 10815 10814 10812 10811 10810 10809 10807 10806 10804 10802 10800 10798 10797 10795 10793
10629 10638 10648 10656 10661 10664 10665 10666 10668 10670 10671 10675 10680 10681 10684 10690 10697 10704 10708 10714 10721 10722 10724 10727 10732 10750 10765 10769 10772 10768 10763 10769 10775 10777 10779 10781 10782 10782 10784 10789 10792 10792 10793 10796 10798 10800 10801 10803 10804 10806 10808 10810 10812 10812 10813 10813 10813 10814 10813 10813 10813 10813 10813 10813 10813 10812 10812 10811 10811 10811 10810 10809 10808 10807 10806 10804 10802 10801 10800 10798 10796 10794 10792 10790 10788 10786
10622 10630 10637 10639 10643 10646 10647 10649 10651 10655 10661 10667 10672 10675 10681 10687 10691 10695 10699 10707 10712 10713 10718 10724 10733 10747 10755 10760 10766 10764 10758 10761 10766 10770 10772 10774 10775 10775 10776 10780 10782 10783 10785 10787 10790 10792 10794 10797 10798 10800 10802 10803 10805 10806 10806 10806 10807 10807 10807 10807 10807 10806 10806 10807 10806 10806 10805 10805 10805 10805 10804 10803 10802 10801 10799 10798 10796 10795 10793 10791 10790 10787 10785 10783 10781 10779
10621 10626 10629 10630 10634 10637 10638 10640 10642 10647 10652 10658 10664 10671 10677 10678 10678 10682 10690 10698 10701 10707 10716 10722 10730 10739 10743 10751 10759 10759 10756 10755 10758 10762 10764 10766 10767 10768 10770 10770 10771 10774 10777 10780 10783 10785 10788 10791 10792 10794 10796 10797 10798 10799 10799 10800 10800 10801 10801 10801 10800 10799 10799 10799 10799 10799 10799 10799 10799 10798 10798 10797 10796 10794 10793 10791 10789 10788 10787 10785 10783 10780 10778 10776 10773 10771
10612 10616 10620 10622 10624 10626 10628 10630 10634 10638 10643 10652 10661 10667 10666 10664 10668 10676 10684 10691 10694 10703 10713 10717 10723 10729 10732 10742 10751 10751 10751 10750 10750 10752 10754 10757 10760 10762 10763 10761 10762 10766 10769 10774 10777 10779 10783 10785 10787 10789 10790 10792 10792 10792 10793 10793 10794 10794 10794 10794 10793 10792 10792 10792 10793 10792 10792 10792 10791 10791 10791 10790 10789 10787 10786 10784 10782 10781 10780 10778 10775 10773 10771 10768 10766 10764
10597 10600 10604 10607 10610 10612 10614 10618 10624 10629 10637 10647 10654 10656 10654 10658 10667 10672 10677 10684 10689 10696 10705 10709 10714 10720 10727 10736 10739 10740 10744 10745 10743 10743 10746 10748 10750 10754 10755 10752 10754 10758 10761 10767 10771 10773 10777 10779 10781 10783 10784 10785 10786 10785 10786 10786 10786 10786 10786 10786 10786 10785 10785 10785 10786 10785 10784 10784 10784 10784 10784 10783 10782 10781 10779 10778 10776 10774 10772 10770 10768 10766 10764 10761 10758 10756
10585 10588 10593 10597 10598 10600 10604 10611 10619 10625 10630 10637 10643 10647 10649 10654 10660 10664 10668 10677 10681 10685 10695 10702 10706 10714 10723 10727 10728 10730 10735 10737 10736 10736 10737 10738 10739 10742 10745 10745 10746 10750 10755 10760 10763 10766 10769 10771 10774 10776 10777 10778 10778 10778 10778 10778 10778 10778 10778 10779 10778 10778 10778 10779 10779 10778 10777 10777 10777 10776 10776 10776 10775 10774 10773 10771 10769 10767 10765 10763 10761 10758 10756 10753 10750 10748
10574 10578 10584 10588 10590 10593 10602 10611 10616 10617 10620 10626 10633 10638 10641 10643 10648 10653 10658 10666 10671 10676 10685 10693 10700 10710 10715 10716 10718 10721 10723 10726 10728 10728 10728 10729 10729 10730 10733 10736 10739 10743 10747 10751 10754 10757 10760 10763 10765 10767 10768 10769 10770 10770 10770 10770 10771 10771 10771 10771 10771 10771 10772 10772 10772 10771 10770 10770 10769 10769 10768 10768 10767 10766 10765 10764 10762 10760 10758 10755 10753 10750 10748 10745 10742 10739
10565 10570 10576 10580 10584 10591 10598 10602 10602 10603 10609 10616 10622 10628 10632 10633 10637 10643 10651 10659 10664 10668 10677 10683 10694 10706 10707 10705 10709 10710 10711 10715 10719 10721 10721 10720 10719 10719 10720 10724 10730 10736 10740 10743 10746 10748 10751 10754 10756 10758 10759 10760 10761 10762 10763 10764 10764 10765 10765 10764 10764 10764 10764 10764 10764 10763 10763 10762 10761 10761 10761 10760 10760 10758 10757 10755 10754 10751 10749 10747 10744 10741 10739 10736 10733 10730
10557 10561 10565 10569 10575 10581 10585 10586 10588 10593 10600 10606 10613 10622 10626 10627 10632 10639 10646 10652 10653 10658 10668 10673 10686 10702 10699 10693 10699 10700 10701 10707 10710 10712 10714 10711 10709 10709 10711 10716 10722 10728 10733 10735 10737 10739 10742 10745 10747 10749 10751 10752 10753 10754 10755 10757 10758 10758 10758 10757 10756 10756 10755 10755 10755 10755 10755 10754 10754 10753 10753 10752 10751 10750 10748 10747 10745 10743 10740 10738 10735 10733 10730 10727 10724 10721
10546 10548 10551 10558 10564 10568 10572 10575 10578 10583 10591 10599 10610 10617 10618 10621 10626 10628 10632 10638 10640 10650 10661 10662 10677 10697 10691 10682 10688 10692 10693 10698 10700 10702 10704 10703 10701 10702 10706 10711 10714 10718 10723 10725 10728 10730 10732 10736 10738 10740 10743 10744 10745 10746 10747 10748 10749 10749 10750 10749 10749 10748 10748 10747 10747 10747 10747 10746 10746 10746 10745 10744 10743 10741 10740 10738 10736 10734 10732 10729 10726 10724 10721 10718 10715 10712
10533 10536 10542 10547 10551 10557 10564 10569 10575 10583 10592 10599 10604 10605 10606 10610 10612 10612 10619 10624 10629 10643 10650 10650 10668 10688 10682 10673 10677 10682 10686 10689 10689 10692 10695 10695 10694 10695 10699 10703 10705 10708 10712 10715 10718 10721 10724 10726 10729 10731 10734 10735 10737 10738 10739 10739 10739 10740 10740 10741 10741 10741 10740 10740 10739 10739 10738 10738 10738 10738 10736 10736 10734 10733 10731 10729 10727 10725 10723 10720 10717 10714 10712 10709 10706 10702
10517 10523 10529 10533 10540 10550 10559 10565 10573 10577 10576 10578 10579 10580 10584 10589 10591 10596 10601 10603 10617 10634 10635 10640 10661 10674 10670 10668 10668 10670 10677 10680 10679 10682 10687 10688 10687 10687 10690 10694 10697 10699 10701 10704 10708 10711 10714 10717 10719 10722 10724 10727 10729 10729 10730 10730 10730 10731 10732 10732 10733 10732 10732 10731 10730 10730 10730 10729 10729 10729 10728 10726 10725 10723 10722 10720 10718 10716 10713 10710 10707 10705 10702 10699 10695 10692
10506 10512 10519 10526 10535 10544 10549 10553 10556 10553 10550 10555 10561 10565 10570 10575 10581 10586 10588 10599 10619 10628 10627 10639 10656 10661 10662 10665 10662 10661 10665 10669 10671 10674 10678 10679 10677 10678 10681 10684 10687 10690 10692 10694 10698 10701 10705 10708 10711 10714 10716 10719 10720 10720 10721 10721 10721 10722 10723 10723 10723 10723 10723 10722 10722 10721 10721 10721 10720 10719 10718 10717 10715 10713 10712 10709 10707 10705 10703 10700 10697 10695 10692 10689 10686 10683
10498 10508 10517 10525 10530 10535 10539 10542 10543 10542 10546 10552 10557 10562 10567 10571 10576 10582 10591 10607 10615 10615 10625 10639 10642 10648 10658 10657 10654 10654 10654 10658 10665 10667 10667 10668 10667 10669 10672 10674 10678 10682 10684 10686 10689 10692 10696 10700 10703 10706 10708 10710 10711 10711 10711 10711 10711 10712 10713 10714 10714 10714 10714 10714 10714 10713 10713 10712 10711 10709 10709 10707 10705 10703 10701 10699 10697 10694 10692 10690 10687 10685 10682 10679 10676 10673
10494 10504 10513 10516 10519 10524 10527 10532 10535 10537 10541 10544 10549 10556 10561 10564 10571 10579 10592 10604 10602 10603 10621 10630 10626 10638 10650 10644 10644 10649 10645 10648 10658 10661 10660 10660 10661 10663 10665 10668 10673 10676 10677 10679 10681 10684 10687 10691 10694 10696 10698 10700 10700 10701 10701 10701 10702 10703 10703 10704 10704 10704 10705 10705 10705 10705 10704 10703 10701 10699 10698 10697 10695 10692 10690 10688 10686 10684 10682 10680 10677 10675 10672 10669 10667 10663
10489 10498 10503 10505 10509 10514 10517 10523 10527 10528 10530 10535 10541 10548 10554 10560 10567 10576 10587 10594 10591 10596 10613 10618 10619 10631 10637 10634 10638 10639 10635 10639 10646 10649 10651 10652 10653 10656 10658 10662 10665 10668 10670 10672 10673 10676 10678 10680 10684 10686 10687 10688 10689 10690 10692 10692 10692 10693 10693 10694 10694 10695 10696 10696 10696 10695 10694 10692 10691 10689 10688 10686 10683 10681 10679 10677 10676 10674 10672 10670 10667 10665 10662 10659 10657 10654
10483 10489 10493 10495 10500 10505 10510 10515 10517 10519 10522 10527 10532 10541 10550 10557 10564 10570 10578 10579 10579 10589 10599 10602 10610 10623 10625 10625 10628 10626 10624 10629 10631 10633 10637 10638 10642 10648 10649 10651 10654 10657 10661 10663 10664 10667 10670 10671 10674 10675 10676 10677 10679 10680 10681 10681 10682 10683 10684 10685 10685 10686 10686 10686 10686 10685 10683 10682 10681 10679 10678 10675 10673 10671 10669 10667 10665 10664 10662 10660 10657 10655 10652 10650 10647 10643
10472 10478 10482 10486 10490 10495 10501 10504 10506 10509 10511 10514 10526 10540 10550 10553 10554 10556 10559 10561 10567 10578 10583 10585 10601 10617 10615 10608 10612 10615 10615 10616 10618 10622 10623 10624 10629 10635 10639 10643 10646 10648 10651 10654 10656 10659 10661 10662 10663 10663 10664 10666 10667 10669 10670 10671 10673 10674 10674 10676 10676 10676 10676 10675 10675 10674 10673 10672 10670 10668 10667 10665 10662 10660 10658 10657 10655 10653 10652 10650 10648 10645 10642 10639 10636 10632
10459 10466 10471 10473 10478 10483 10487 10490 10494 10495 10495 10505 10525 10539 10539 10537 10537 10539 10547 10554 10559 10565 10570 10578 10594 10604 10600 10597 10603 10607 10605 10605 10608 10611 10612 10613 10614 10619 10628 10636 10640 10642 10642 10643 10646 10649 10651 10652 10652 10652 10654 10655 10656 10658 10660 10663 10664 10664 10665 10666 10666 10666 10665 10664 10664 10663 10662 10660 10659 10658 10656 10654 10652 10650 10648 10646 10645 10643 10641 10639 10637 10634 10631 10627 10624 10620
10447 10454 10458 10460 10464 10467 10471 10476 10477 10477 10486 10506 10525 10527 10523 10523 10528 10535 10544 10548 10549 10554 10564 10574 10583 10587 10590 10594 10596 10593 10592 10595 10597 10599 10602 10605 10605 10608 10617 10625 10630 10633 10632 10632 10635 10638 10641 10642 10642 10643 10645 10645 10647 10649 10651 10653 10653 10653 10654 10655 10655 10655 10655 10654 10654 10653 10651 10650 10648 10647 10645 10643 10641 10640 10638 10636 10634 10632 10630 10628 10625 10621 10618 10615 10612 10608
10439 10445 10447 10449 10451 10454 10460 10464 10466 10476 10495 10512 10519 10518 10516 10519 10527 10533 10537 10539 10542 10548 10556 10563 10569 10573 10578 10584 10584 10580 10580 10583 10587 10590 10593 10596 10598 10599 10604 10611 10618 10621 10621 10622 10626 10628 10629 10631 10632 10634 10636 10637 10638 10639 10641 10642 10642 10643 10644 10645 10645 10645 10644 10644 10643 10642 10640 10638 10637 10635 10634 10632 10631 10629 10627 10625 10623 10621 10619 10615 10612 10608 10605 10603 10600 10597
10436 10440 10444 10446 10448 10453 10460 10463 10470 10487 10501 10506 10512 10516 10514 10515 10521 10525 10527 10531 10534 10537 10542 10550 10555 10558 10562 10571 10574 10572 10571 10572 10577 10584 10586 10586 10586 10588 10594 10602 10607 10607 10607 10610 10613 10616 10618 10620 10623 10625 10626 10627 10628 10629 10630 10631 10633 10634 10634 10634 10634 10634 10633 10633 10632 10630 10628 10626 10625 10624 10623 10622 10620 10618 10616 10614 10612 10609 10605 10602 10599 10596 10594 10592 10589 10585
10432 10438 10443 10446 10450 10456 10462 10466 10473 10484 10492 10500 10511 10515 10508 10506 10509 10509 10513 10523 10526 10525 10530 10537 10540 10543 10549 10555 10558 10559 10560 10561 10568 10577 10576 10569 10569 10575 10585 10593 10594 10592 10594 10597 10601 10604 10607 10611 10613 10614 10615 10616 10616 10616 10618 10620 10623 10624 10624 10623 10623 10622 10622 10622 10621 10618 10616 10614 10613 10612 10611 10610 10609 10607 10604 10601 10598 10595 10592 10590 10587 10585 10583 10580 10577 10574
10428 10434 10439 10442 10446 10451 10455 10461 10466 10474 10488 10502 10506 10502 10498 10495 10492 10489 10498 10517 10521 10513 10513 10520 10525 10529 10534 10538 10540 10544 10547 10553 10564 10567 10557 10549 10553 10563 10572 10578 10580 10581 10584 10587 10590 10593 10595 10598 10601 10601 10602 10603 10603 10604 10606 10608 10610 10612 10612 10612 10611 10610 10611 10611 10608 10605 10603 10603 10602 10601 10600 10598 10596 10594 10591 10588 10586 10583 10581 10579 10576 10574 10571 10568 10565 10561
10422 10427 10430 10432 10438 10445 10449 10455 10460 10470 10487 10495 10489 10484 10484 10482 10476 10471 10483 10507 10511 10496 10496 10508 10513 10515 10519 10522 10525 10529 10536 10549 10559 10550 10533 10532 10544 10552 10557 10563 10568 10573 10575 10577 10579 10582 10583 10584 10586 10587 10588 10589 10590 10592 10594 10595 10597 10598 10598 10598 10597 10598 10598 10596 10594 10593 10592 10592 10590 10588 10587 10586 10583 10581 10579 10576 10574 10572 10569 10567 10564 10561 10559 10556 10553 10549
10415 10419 10421 10424 10434 10442 10444 10446 10454 10466 10479 10481 10476 10474 10472 10467 10463 10461 10472 10491 10492 10481 10484 10493 10496 10499 10504 10507 10510 10518 10527 10538 10540 10530 10520 10526 10538 10543 10545 10550 10555 10561 10564 10565 10566 10567 10568 10569 10571 10573 10574 10576 10578 10580 10581 10582 10584 10585 10585 10584 10584 10584 10583 10582 10582 10583 10582 10580 10578 10576 10575 10573 10571 10569 10567 10564 10562 10559 10556 10554 10551 10549 10547 10543 10540 10537
10407 10411 10413 10419 10427 10433 10434 10437 10445 10456 10466 10466 10463 10463 10460 10454 10455 10460 10466 10468 10463 10463 10470 10472 10474 10485 10492 10494 10500 10508 10515 10521 10523 10519 10517 10522 10528 10532 10534 10536 10539 10544 10548 10551 10552 10553 10554 10556 10559 10560 10562 10563 10565 10567 10568 10569 10570 10571 10571 10571 10571 10570 10570 10571 10571 10570 10569 10568 10566 10564 10563 10561 10559 10556 10554 10551 10549 10546 10544 10541 10539 10537 10534 10531 10527 10524
10403 10405 10407 10413 10419 10423 10426 10429 10434 10445 10455 10455 10451 10451 10450 10448 10452 10455 10451 10440 10437 10447 10455 10454 10460 10474 10482 10485 10492 10498 10501 10507 10512 10512 10511 10512 10515 10519 10521 10523 10525 10528 10532 10536 10539 10541 10542 10544 10545 10547 10549 10550 10552 10554 10555 10556 10557 10557 10557 10558 10558 10558 10559 10558 10558 10557 10556 10555 10554 10552 10550 10548 10546 10543 10541 10539 10536 10534 10532 10529 10527 10524 10521 10518 10514 10511
10396 10397 10401 10407 10411 10413 10416 10418 10425 10440 10449 10443 10437 10439 10441 10442 10443 10438 10427 10420 10424 10433 10439 10443 10452 10465 10471 10476 10481 10485 10489 10493 10497 10500 10501 10502 10504 10506 10508 10511 10513 10515 10518 10522 10525 10527 10529 10531 10532 10534 10535 10537 10538 10540 10541 10542 10543 10543 10544 10545 10545 10546 10546 10545 10545 10544 10543 10542 10540 10538 10537 10535 10533 10531 10529 10527 10524 10522 10520 10517 10514 10511 10508 10505 10501 10497
10389 10393 10398 10403 10403 10403 10407 10412 10421 10432 10434 10425 10421 10425 10428 10427 10427 10422 10413 10411 10416 10422 10429 10437 10445 10453 10461 10465 10467 10472 10477 10480 10484 10488 10490 10491 10493 10495 10496 10498 10500 10502 10505 10508 10510 10512 10515 10517 10519 10521 10522 10523 10525 10526 10527 10528 10529 10530 10531 10532 10532 10533 10533 10532 10532 10531 10529 10528 10526 10525 10523 10522 10520 10518 10516 10514 10511 10509 10506 10504 10500 10498 10495 10491 10488 10484
10387 10390 10392 10394 10394 10394 10399 10405 10409 10415 10418 10415 10413 10414 10415 10415 10416 10414 10408 10407 10410 10416 10424 10431 10436 10443 10451 10455 10457 10461 10465 10469 10473 10476 10477 10479 10482 10483 10484 10486 10487 10489 10492 10494 10497 10499 10501 10503 10505 10507 10509 10510 10512 10513 10514 10515 10516 10517 10518 10518 10519 10519 10519 10519 10518 10517 10516 10514 10513 10511 10510 10509 10507 10505 10503 10500 10498 10496 10493 10490 10487 10484 10481 10477 10474 10470
10379 10380 10382 10385 10386 10388 10393 10400 10402 10405 10409 10410 10407 10406 10406 10407 10408 10405 10402 10403 10407 10411 10416 10422 10428 10433 10439 10444 10448 10452 10455 10458 10462 10463 10465 10467 10469 10471 10473 10475 10475 10478 10480 10482 10485 10487 10489 10491 10493 10494 10496 10497 10498 10499 10500 10501 10502 10503 10504 10505 10505 10506 10506 10505 10504 10503 10502 10501 10500 10498 10497 10495 10493 10491 10489 10487 10484 10482 10479 10476 10473 10470 10467 10463 10459 10455
10370 10372 10374 10378 10380 10385 10392 10396 10396 10397 10399 10400 10399 10398 10396 10397 10397 10395 10394 10396 10400 10404 10408 10413 10419 10424 10429 10434 10438 10441 10443 10445 10447 10450 10453 10455 10458 10461 10463 10465 10466 10468 10469 10471 10473 10475 10478 10480 10481 10482 10483 10484 10484 10485 10486 10487 10489 10490 10491 10492 10492 10492 10492 10491 10490 10489 10488 10487 10486 10485 10483 10482 10480 10478 10476 10473 10471 10468 10466 10462 10459 10456 10453 10449 10445 10442
10362 10362 10365 10371 10377 10383 10389 10390 10388 10389 10391 10391 10392 10392 10390 10389 10389 10387 10385 10387 10391 10396 10401 10405 10410 10415 10420 10422 10425 10428 10431 10433 10435 10438 10442 10444 10447 10450 10453 10455 10457 10458 10459 10461 10462 10463 10465 10467 10468 10470 10470 10471 10472 10473 10473 10475 10476 10477 10478 10479 10478 10478 10477 10476 10476 10476 10475 10474 10473 10471 10470 10468 10466 10464 10462 10459 10457 10455 10452 10449 10446 10443 10440 10435 10432 10429
10353 10355 10361 10367 10372 10378 10385 10386 10383 10382 10383 10384 10385 10385 10382 10378 10377 10378 10378 10379 10382 10387 10394 10399 10402 10406 10409 10412 10415 10417 10420 10423 10426 10429 10431 10433 10436 10439 10441 10444 10446 10447 10449 10450 10450 10452 10453 10455 10456 10457 10457 10458 10459 10461 10462 10464 10465 10466 10467 10466 10465 10465 10464 10463 10463 10462 10461 10460 10459 10457 10456 10454 10452 10450 10448 10445 10443 10441 10438 10435 10432 10429 10426 10421 10417 10415
10346 10351 10356 10360 10365 10374 10380 10378 10373 10371 10371 10373 10373 10372 10371 10369 10370 10372 10374 10375 10376 10382 10388 10393 10397 10399 10401 10404 10407 10408 10409 10412 10415 10417 10419 10421 10424 10426 10429 10431 10433 10435 10437 10438 10439 10440 10441 10442 10444 10445 10445 10446 10448 10449 10450 10452 10453 10454 10454 10453 10452 10452 10451 10451 10451 10449 10448 10447 10445 10444 10442 10440 10438 10436 10434 10431 10429 10427 10424 10421 10418 10415 10411 10407 10403 10400
10340 10345 10347 10350 10358 10367 10369 10365 10362 10361 10362 10363 10363 10364 10366 10368 10369 10370 10371 10372 10374 10378 10382 10386 10390 10392 10394 10396 10398 10398 10399 10401 10402 10405 10407 10410 10412 10415 10417 10419 10421 10423 10424 10426 10428 10429 10430 10431 10433 10433 10434 10435 10436 10437 10439 10440 10441 10441 10441 10440 10439 10439 10438 10438 10437 10435 10434 10433 10431 10430 10428 10426 10424 10422 10419 10417 10414 10412 10409 10406 10403 10399 10396 10392 10389 10386